STARLINK-36134

Last updated on Mon Dec 15 2025 00:02:12 GMT+0000 (Coordinated Universal Time)

1 66863U 25281R 25348.25003472 -.01262368 00000+0 -52445-2 0 9993 2 66863 43.0010 112.9428 0001584 267.7621 291.4228 15.87306052 1641
UTC large
Height (km)
Speed (km/s)
/
Latitude / Longitude
Inclination (degrees)
Orbital Period (minutes)
Azimuth
Elevation
Range (km)
Doppler Factor

Next 0 passes for location: London (51.5072 / 0.1276)

Sorry there are no passes over London.